User: anonymous   Login
Location: Newark
(34.1333°N, 7.9667°W)
Time: 09:52:16
(UTC+00:00)
Language:

S-56A Canister/Altair - Orbit

View from above orbital plane
View from above orbital plane
View from above satellite
View from above satellite

Ground track
Ground track

The orbit data is extracted from the following two-line orbital elements,

1 00082U 61004B   22276.45411271  .00000172  00000-0  17886-3 0  9998
2 00082  38.8566 335.5797 1169843 167.7076 195.4940 12.26026519910661
Epoch (UTC): 03 October 2022 10:53:55
Eccentricity: 0.1169843
inclination: 38.8566°
perigee height: 637 km
apogee height: 2496 km
right ascension of ascending node: 335.5797°
argument of perigee: 167.7076°
revolutions per day: 12.26026519
mean anomaly at epoch: 195.4940°
orbit number at epoch: 91066

The dashed part of the orbit path shows where the satellite is in the earth's shadow,  

DLR